Flag Weather past 2 weeks in Porto Velho, Rondônia, Brazil

Now
72 °F

Light rain. Passing clouds.


Feels Like: 67 °F
Forecast: 71 / 85 °F
Wind: 2 mph from North

Location: Porto Velho Aeroporto

Current Time: Nov 28, 2014 at 12:37:51 AM

Latest Report: Nov 28, 2014 at 12:00 AM


Visibility: N/A

Pressure: 29.86 "Hg

Humidity: 94%

Dew point: 70 °F

Location of Porto VelhoLocation

Historic Weather in Porto Velho — Graph

°F

Porto Velho temperature yesterday

Maximum temperature yesterday: 79 °F (at 12:00 PM)
Minimum temperature yesterday: 72 °F (at 9:00 PM)
Average temperature yesterday: 75 °F

Past Weeks' High & Low Weather Summary

 TemperatureHumidityPressure
High90 °F (Nov 22, 12:00 PM)100% (Nov 13, 7:00 AM)29.98 "Hg (Nov 13, 7:00 AM)
Low36 °F (Nov 17, 11:00 AM)22% (Nov 19, 8:00 PM)29.68 "Hg (Nov 18, 5:00 PM)
Average77 °F84%29.82 "Hg
* Reported Nov 12 11:00 PM — Nov 27 11:00 PM, Porto Velho, Weather by CustomWeather, © 2014

Note: Actual official high and low records may vary slightly from our data, if they occured in-between our weather recording intervals... More about our weather records

Advertising

Porto Velho weather history for previous 24 hours

 ConditionsComfort  
Time TempWeatherWind HumidityBarometerVisibility
11:00 PM
Nov 27
72 °FPartly cloudy.No wind100%29.89 "HgN/A
10:00 PM72 °FPartly cloudy.1 mph94%29.86 "HgN/A
9:00 PM72 °FPartly cloudy.No wind94%29.86 "HgN/A
8:00 PM73 °FLight rain. Mostly cloudy.1 mph94%29.86 "Hg5 mi
7:00 PMN/ALight rain.No windN/AN/A5 mi
6:00 PMN/ALight rain.1 mphN/AN/A5 mi
5:00 PM75 °FBroken clouds.2 mph89%29.80 "HgN/A
4:00 PM77 °FBroken clouds.7 mph83%29.80 "HgN/A
3:00 PM77 °FBroken clouds.12 mph83%29.80 "HgN/A
2:00 PM79 °FBroken clouds.6 mph79%29.83 "HgN/A
1:00 PM79 °FBroken clouds.3 mph79%29.86 "HgN/A
12:00 PM79 °FBroken clouds.3 mph79%29.89 "HgN/A
11:00 AM77 °FDrizzle. Partly sunny.No wind83%29.92 "HgN/A
10:00 AM77 °FPartly sunny.No wind83%29.92 "HgN/A
9:00 AM75 °FPartly sunny.No wind89%29.92 "Hg5 mi
8:00 AM75 °FBroken clouds.No wind89%29.89 "Hg5 mi
7:00 AM73 °FBroken clouds.No wind94%29.86 "Hg4 mi
6:00 AM73 °FMore clouds than sun.No wind94%29.83 "Hg4 mi
5:00 AM73 °FPartly cloudy.No wind94%29.83 "HgN/A
4:00 AM73 °FPartly cloudy.3 mph94%29.80 "HgN/A
3:00 AM73 °FPartly cloudy.2 mph94%29.80 "HgN/A
2:00 AM73 °FPassing clouds.2 mph94%29.83 "HgN/A
1:00 AM73 °FPassing clouds.3 mph94%29.83 "HgN/A
12:00 AM73 °FPassing clouds.3 mph94%29.83 "HgN/A
Weather by CustomWeather, © 2014

See weather overviewHow to use our weather pages